Location: Round Knob
(37.2473°N, 88.7376°W)
Time: 14:52:31
(UTC+00:00)

STARLINK-3055 - Pass Details

Date: 28 September 2021
Orbit: 357 x 362 km, 70.0° (Epoch: 24 October)

Event Time Altitude Azimuth Distance (km) Brightness Sun altitude
Rises 11:11:08 0° 158° (SSE) 2,169 6.9 -8.2°
Reaches altitude 10° 11:14:44 10° 110° (ESE) 1,335 6.9 -7.5°
Maximum altitude 11:15:05 10° 104° (ESE) 1,326 7.0 -7.4°
Drops below altitude 10° 11:15:26 10° 97° (E) 1,336 7.3 -7.3°
Sets 11:19:03 0° 49° (NE) 2,192 7.6 -6.6°
